Simultaneous Nadir Overpasses (SNOs) Predictions

Prediction of SNOs between FY3D and NOAA-19 Satellite Orbit:

Table of predicted SNOs for the next 14.0 days since TLE Epoch: 12/7/2019
Index Date (FY3D) Time (FY3D) Lat,Lon (FY3D) SZA (FY3D ) Date (NOAA-19) Time (NOAA-19) Lat,Lon (NOAA-19) SZA (NOAA-19 ) Distance(km) Time Diff (sec)
1 12/19/2019 22:22:56 -79.73, -10.98 75.20 12/19/2019 22:21:44 -79.76, -11.03 75.14 3.15 72
2 12/19/2019 23:13:41 79.74, 156.31 104.81 12/19/2019 23:12:48 79.76, 156.23 104.86 3.35 53
3 12/20/2019 00:04:26 -79.76, -36.60 75.15 12/20/2019 00:03:45 -79.75, -36.62 75.14 1.04 41
4 12/20/2019 00:55:11 79.76, 130.69 104.86 12/20/2019 00:54:49 79.76, 130.64 104.87 1.29 22
5 12/20/2019 01:45:55 -79.76, -61.94 75.15 12/20/2019 01:45:45 -79.77, -61.91 75.14 1.56 10
6 12/20/2019 02:36:40 79.76, 105.35 104.86 12/20/2019 02:36:49 79.77, 105.36 104.86 1.49 9
7 12/20/2019 03:27:24 -79.79, -87.57 75.10 12/20/2019 03:27:45 -79.76, -87.50 75.14 2.78 21
8 12/20/2019 04:18:09 79.79, 79.72 104.91 12/20/2019 04:18:49 79.77, 79.77 104.87 2.59 40
9 12/20/2019 05:08:53 -79.78,-112.90 75.11 12/20/2019 05:09:45 -79.78,-112.79 75.14 2.21 52
10 12/20/2019 05:59:38 79.79, 54.38 104.90 12/20/2019 06:00:49 79.79, 54.48 104.86 1.93 71




NCC Satellite Simultaneous Nadir Overpasses (SNOs) Prediction Service
